Location: Maiden
(35.5760°N, 81.2120°W)
Time: 02:29:29
(UTC-04:00)

A-11 Canister half - Pass Details

Date: 13 August 2020
Orbit: 1527 x 1682 km, 47.3° (Epoch: 25 September)

Event Time Altitude Azimuth Distance (km) Brightness Sun altitude
Rises 11:33:32 0° 226° (SW) 4,857 11.5 56.5°
Reaches altitude 10° 11:36:38 10° 225° (SW) 3,889 11.2 57.0°
Maximum altitude 11:46:38 77° 141° (SE) 1,712 11.0 58.7°
Drops below altitude 10° 11:56:47 10° 57° (ENE) 3,946 11.4 60.3°
Sets 11:59:57 0° 56° (ENE) 4,931 11.8 60.8°
